• In Belgium
  • List of Countries
  • For 7 days
  • Water Temperature
  • Satellite Maps
  • Weather Map
  • Weather Widgets
  • user-avatar
    Login

    Hourly Weather Korfu

    Today, 24 October, Tuesday

    Time Temperature Precipitation Wind Pressure Humidity
    00:00 +12°C° 0.3 mm 8 mps 749 mmHg 81%
    01:00 +12°C° 0.3 mm 8 mps 749 mmHg 81%
    02:00 +12°C° 0.3 mm 8 mps 749 mmHg 82%
    03:00 +12°C° 0.3 mm 7 mps 749 mmHg 82%
    04:00 +11°C° 0.3 mm 7 mps 749 mmHg 82%
    05:00 +11°C° 0.3 mm 7 mps 749 mmHg 81%
    06:00 +11°C° 0.3 mm 6 mps 749 mmHg 80%
    07:00 +13°C° 0.3 mm 6 mps 749 mmHg 79%
    08:00 +14°C° 0.2 mm 6 mps 749 mmHg 73%
    09:00 +15°C° 0.2 mm 5 mps 749 mmHg 66%
    10:00 +17°C° 0.2 mm 5 mps 749 mmHg 59%
    11:00 +17°C° 0.1 mm 6 mps 749 mmHg 57%
    12:00 +19°C° 0.1 mm 6 mps 749 mmHg 56%
    13:00 +19°C° 0.1 mm 6 mps 749 mmHg 54%
    14:00 +17°C° 0.2 mm 7 mps 749 mmHg 58%
    15:00 +17°C° 0.2 mm 7 mps 750 mmHg 63%
    16:00 +16°C° 0.2 mm 8 mps 750 mmHg 67%
    17:00 +15°C° 0.1 mm 7 mps 750 mmHg 69%
    18:00 +15°C° 0.1 mm 6 mps 751 mmHg 71%
    19:00 +14°C° 0.1 mm 6 mps 751 mmHg 73%
    20:00 +14°C° 0 mm 5 mps 752 mmHg 74%
    21:00 +13°C° 0 mm 5 mps 752 mmHg 74%
    22:00 +13°C° 0 mm 4 mps 752 mmHg 74%
    23:00 +13°C° 0.1 mm 4 mps 753 mmHg 74%

    Tomorrow, 25 October, Wednesday

    Time Temperature Precipitation Wind Pressure Humidity
    00:00 +12°C° 0.1 mm 4 mps 753 mmHg 74%
    01:00 +12°C° 0.1 mm 4 mps 754 mmHg 74%
    02:00 +12°C° 0 mm 4 mps 754 mmHg 74%
    03:00 +12°C° 0 mm 4 mps 754 mmHg 74%
    04:00 +11°C° 0 mm 4 mps 755 mmHg 74%
    05:00 +12°C° 0 mm 4 mps 755 mmHg 74%
    06:00 +12°C° 0 mm 4 mps 756 mmHg 74%
    07:00 +12°C° 0 mm 4 mps 756 mmHg 73%
    08:00 +14°C° 0 mm 4 mps 757 mmHg 65%
    09:00 +18°C° 0 mm 4 mps 757 mmHg 56%
    10:00 +20°C° 0 mm 3 mps 757 mmHg 48%
    11:00 +21°C° 0 mm 4 mps 758 mmHg 46%
    12:00 +21°C° 0 mm 4 mps 758 mmHg 44%
    13:00 +22°C° 0 mm 4 mps 758 mmHg 41%
    14:00 +22°C° 0 mm 4 mps 758 mmHg 45%
    15:00 +21°C° 0 mm 5 mps 758 mmHg 48%
    16:00 +21°C° 0 mm 5 mps 759 mmHg 51%
    17:00 +20°C° 0 mm 5 mps 759 mmHg 53%
    18:00 +18°C° 0 mm 4 mps 760 mmHg 56%
    19:00 +17°C° 0 mm 4 mps 761 mmHg 58%
    20:00 +17°C° 0 mm 4 mps 761 mmHg 60%
    21:00 +16°C° 0 mm 3 mps 762 mmHg 63%
    22:00 +16°C° 0 mm 3 mps 762 mmHg 65%
    23:00 +14°C° 0 mm 3 mps 762 mmHg 66%

    Day after tomorrow, 26 October, Thursday

    Time Temperature Precipitation Wind Pressure Humidity
    00:00 +14°C° 0 mm 3 mps 763 mmHg 68%
    01:00 +14°C° 0 mm 3 mps 763 mmHg 69%
    02:00 +14°C° 0 mm 3 mps 763 mmHg 69%
    03:00 +13°C° 0 mm 3 mps 763 mmHg 70%
    04:00 +13°C° 0 mm 3 mps 763 mmHg 70%
    05:00 +13°C° 0 mm 3 mps 764 mmHg 70%
    06:00 +13°C° 0 mm 3 mps 764 mmHg 69%
    07:00 +13°C° 0 mm 3 mps 764 mmHg 68%
    08:00 +17°C° 0 mm 3 mps 764 mmHg 61%
    09:00 +19°C° 0 mm 2 mps 765 mmHg 53%
    10:00 +21°C° 0 mm 2 mps 765 mmHg 46%
    11:00 +23°C° 0 mm 2 mps 764 mmHg 44%
    12:00 +24°C° 0 mm 2 mps 764 mmHg 42%
    13:00 +25°C° 0 mm 2 mps 764 mmHg 40%
    14:00 +24°C° 0 mm 3 mps 764 mmHg 45%
    15:00 +22°C° 0 mm 3 mps 764 mmHg 50%
    16:00 +21°C° 0 mm 4 mps 764 mmHg 54%
    17:00 +20°C° 0 mm 4 mps 764 mmHg 57%
    18:00 +19°C° 0 mm 4 mps 764 mmHg 60%
    19:00 +18°C° 0 mm 4 mps 764 mmHg 64%
    20:00 +18°C° 0 mm 4 mps 764 mmHg 63%
    21:00 +17°C° 0 mm 3 mps 764 mmHg 62%
    22:00 +17°C° 0 mm 3 mps 764 mmHg 62%
    23:00 +17°C° 0 mm 3 mps 764 mmHg 61%

    27 October, Friday

    Time Temperature Precipitation Wind Pressure Humidity
    00:00 +16°C° 0 mm 3 mps 764 mmHg 60%
    01:00 +16°C° 0 mm 3 mps 764 mmHg 59%
    02:00 +16°C° 0 mm 3 mps 763 mmHg 59%
    03:00 +16°C° 0 mm 3 mps 763 mmHg 58%
    04:00 +14°C° 0 mm 3 mps 763 mmHg 58%
    05:00 +16°C° 0 mm 3 mps 763 mmHg 58%
    06:00 +16°C° 0 mm 3 mps 763 mmHg 58%
    07:00 +16°C° 0 mm 3 mps 762 mmHg 58%
    08:00 +18°C° 0 mm 2 mps 762 mmHg 53%
    09:00 +20°C° 0 mm 2 mps 762 mmHg 48%
    10:00 +24°C° 0 mm 1 mps 762 mmHg 42%
    11:00 +24°C° 0 mm 2 mps 761 mmHg 42%
    12:00 +25°C° 0 mm 3 mps 760 mmHg 41%
    13:00 +25°C° 0 mm 3 mps 760 mmHg 40%
    14:00 +24°C° 0 mm 3 mps 759 mmHg 46%
    15:00 +22°C° 0 mm 3 mps 759 mmHg 51%
    16:00 +22°C° 0 mm 3 mps 758 mmHg 57%
    17:00 +20°C° 0 mm 3 mps 758 mmHg 61%
    18:00 +19°C° 0 mm 2 mps 758 mmHg 66%
    19:00 +18°C° 0 mm 2 mps 758 mmHg 71%
    20:00 +17°C° 0 mm 2 mps 757 mmHg 72%
    21:00 +18°C° 0 mm 1 mps 757 mmHg 74%
    22:00 +18°C° 0 mm 1 mps 757 mmHg 75%
    23:00 +18°C° 0 mm 1 mps 756 mmHg 77%

    28 October, Saturday

    Time Temperature Precipitation Wind Pressure Humidity
    00:00 +16°C° 0 mm 1 mps 756 mmHg 79%
    01:00 +16°C° 0 mm 1 mps 756 mmHg 81%
    02:00 +16°C° 0 mm 1 mps 755 mmHg 83%
    03:00 +15°C° 0 mm 1 mps 755 mmHg 84%
    04:00 +15°C° 0 mm 2 mps 754 mmHg 85%
    05:00 +15°C° 0 mm 2 mps 754 mmHg 82%
    06:00 +15°C° 0 mm 2 mps 754 mmHg 80%
    07:00 +16°C° 0 mm 3 mps 754 mmHg 78%
    08:00 +17°C° 0 mm 3 mps 754 mmHg 70%
    09:00 +19°C° 0 mm 3 mps 754 mmHg 62%
    10:00 +20°C° 0 mm 3 mps 754 mmHg 54%
    11:00 +21°C° 0 mm 2 mps 753 mmHg 53%
    12:00 +21°C° 0 mm 2 mps 753 mmHg 51%
    13:00 +23°C° 0 mm 2 mps 752 mmHg 50%
    14:00 +21°C° 0 mm 2 mps 752 mmHg 54%
    15:00 +21°C° 0 mm 2 mps 752 mmHg 58%
    16:00 +20°C° 0 mm 2 mps 752 mmHg 62%
    17:00 +19°C° 0 mm 2 mps 752 mmHg 68%
    18:00 +18°C° 0 mm 2 mps 752 mmHg 73%
    19:00 +17°C° 0 mm 2 mps 752 mmHg 79%
    20:00 +17°C° 0 mm 2 mps 752 mmHg 80%
    21:00 +16°C° 0 mm 3 mps 752 mmHg 81%
    22:00 +16°C° 0 mm 3 mps 752 mmHg 82%
    23:00 +16°C° 0.1 mm 3 mps 751 mmHg 82%

    29 October, Sunday

    Time Temperature Precipitation Wind Pressure Humidity
    00:00 +14°C° 0.1 mm 4 mps 751 mmHg 81%
    01:00 +14°C° 0.1 mm 4 mps 750 mmHg 81%
    02:00 +14°C° 0.2 mm 4 mps 750 mmHg 78%
    03:00 +15°C° 0.2 mm 4 mps 749 mmHg 75%
    04:00 +15°C° 0.2 mm 5 mps 749 mmHg 72%
    05:00 +15°C° 0.1 mm 5 mps 748 mmHg 74%
    06:00 +15°C° 0.1 mm 5 mps 748 mmHg 75%
    07:00 +16°C° 0.1 mm 5 mps 748 mmHg 77%
    08:00 +17°C° 0.2 mm 5 mps 748 mmHg 76%
    09:00 +19°C° 0.2 mm 6 mps 747 mmHg 74%
    10:00 +20°C° 0.2 mm 6 mps 747 mmHg 73%
    11:00 +20°C° 0.5 mm 7 mps 746 mmHg 75%
    12:00 +20°C° 0.5 mm 7 mps 746 mmHg 76%
    13:00 +20°C° 0.5 mm 7 mps 745 mmHg 78%
    14:00 +18°C° 0.8 mm 8 mps 745 mmHg 80%
    15:00 +18°C° 0.8 mm 8 mps 744 mmHg 83%
    16:00 +17°C° 0.8 mm 8 mps 744 mmHg 86%
    17:00 +17°C° 1.2 mm 9 mps 744 mmHg 87%
    18:00 +17°C° 1.2 mm 9 mps 744 mmHg 88%
    19:00 +17°C° 1.2 mm 9 mps 744 mmHg 90%
    20:00 +17°C° 1.3 mm 10 mps 744 mmHg 89%
    21:00 +17°C° 1.3 mm 11 mps 744 mmHg 88%
    22:00 +18°C° 1.3 mm 11 mps 744 mmHg 88%
    23:00 +17°C° 0.8 mm 10 mps 744 mmHg 87%

    30 October, Monday

    Time Temperature Precipitation Wind Pressure Humidity
    00:00 +17°C° 0.8 mm 10 mps 744 mmHg 86%
    01:00 +16°C° 0.8 mm 9 mps 744 mmHg 85%
    02:00 +15°C° 0.4 mm 9 mps 744 mmHg 87%
    03:00 +15°C° 0.4 mm 9 mps 744 mmHg 89%
    04:00 +13°C° 0.4 mm 9 mps 744 mmHg 91%
    05:00 +12°C° 0.2 mm 9 mps 745 mmHg 87%
    06:00 +12°C° 0.2 mm 9 mps 746 mmHg 84%
    07:00 +11°C° 0.2 mm 9 mps 747 mmHg 81%
    08:00 +12°C° 0.2 mm 10 mps 748 mmHg 77%
    09:00 +12°C° 0.2 mm 10 mps 749 mmHg 72%
    10:00 +12°C° 0.2 mm 10 mps 750 mmHg 67%
    11:00 +12°C° 0.3 mm 10 mps 750 mmHg 66%
    12:00 +12°C° 0.3 mm 11 mps 750 mmHg 65%
    13:00 +12°C° 0.3 mm 11 mps 750 mmHg 65%
    14:00 +12°C° 0.6 mm 11 mps 751 mmHg 67%
    15:00 +11°C° 0.6 mm 11 mps 751 mmHg 70%
    16:00 +11°C° 0.6 mm 11 mps 751 mmHg 73%
    17:00 +9°C° 0.3 mm 10 mps 752 mmHg 75%
    18:00 +9°C° 0.3 mm 10 mps 753 mmHg 77%
    19:00 +9°C° 0.3 mm 10 mps 753 mmHg 78%
    20:00 +10°C° 0.2 mm 9 mps 754 mmHg 79%
    21:00 +8°C° 0.2 mm 9 mps 755 mmHg 80%
    22:00 +8°C° 0.2 mm 9 mps 755 mmHg 80%
    23:00 +8°C° 0.1 mm 9 mps 756 mmHg 80%
    Show more